Location: Boston
(42.3580°N, 71.0600°W)
Time: 06:47:22
(UTC-04:00)

N. Korean satellite - Pass Details

Date: 12 October 2017
Orbit: 459 x 517 km, 97.2° (Epoch: 19 October)

Event Time Altitude Azimuth Distance (km) Brightness Sun altitude
Rises 18:35:47 0° 161° (SSE) 2,557 10.1 -6.2°
Reaches altitude 10° 18:37:52 10° 159° (SSE) 1,670 9.1 -6.5°
Maximum altitude 18:41:26 69° 76° (ENE) 521 6.5 -7.2°
Drops below altitude 10° 18:44:57 10° 353° (N) 1,652 9.3 -7.9°
Sets 18:47:00 0° 351° (N) 2,526 10.3 -8.2°
